Location: Spaichingen
(48.0400°N, 8.4300°E)
Time: 05:04:36
(UTC+01:00)

ISS - Pass Details

Date: 25 January 2019
Orbit: 403 x 411 km, 51.6° (Epoch: 21 February)

Event Time Altitude Azimuth Distance (km) Brightness Sun altitude
Rises 18:24:54 0° 221° (SW) 2,321 1.1 -11.7°
Reaches altitude 10° 18:27:04 10° 212° (SSW) 1,466 -0.3 -12.1°
Maximum altitude 18:30:06 35° 145° (SE) 683 -2.9 -12.6°
Enters shadow 18:31:39 22° 95° (E) 957 -2.5 -12.8°
